This is the latest recevied weather packets stored in our database for station/object W3JBS-2. If no packets are shown the sender has not sent any weather packets the latest 10 day(s).
| Time | Temp. | Humidity | Pressure | Rain* | Wind** | Luminosity | Snow |
|---|---|---|---|---|---|---|---|
| 1777985521 | 18.89° C | 59% | 1011.1 hPa | 0 mm | - | 1779 W/m² | - |
| 1777984621 | 18.33° C | 58% | 1011 hPa | 0 mm | - | 1777 W/m² | - |
| 1777983721 | 17.78° C | 61% | 1011 hPa | 0 mm | - | 1777 W/m² | - |
| 1777982821 | 17.22° C | 63% | 1010.9 hPa | 0 mm | - | 1777 W/m² | - |
| 1777981921 | 16.67° C | 65% | 1010.8 hPa | 0 mm | - | 1777 W/m² | - |
| 1777981020 | 16.11° C | 66% | 1010.8 hPa | 0 mm | - | 1777 W/m² | - |
| 1777980121 | 15.56° C | 68% | 1010.8 hPa | 0 mm | - | 1777 W/m² | - |
| 1777979221 | 15.56° C | 69% | 1010.5 hPa | 0 mm | - | 1779 W/m² | - |
| 1777978321 | 14.44° C | 70% | 1010.4 hPa | 0 mm | - | 1781 W/m² | - |
| 1777977421 | 14.44° C | 70% | 1010.2 hPa | 0 mm | - | 1781 W/m² | - |
| 1777976521 | 14.44° C | 69% | 1010.2 hPa | 0 mm | - | 1782 W/m² | - |
| 1777975621 | 14.44° C | 69% | 1010.1 hPa | 0 mm | - | 1782 W/m² | - |
| 1777974721 | 15° C | 68% | 1009.9 hPa | 0 mm | - | 1782 W/m² | - |
| 1777973821 | 15° C | 68% | 1009.8 hPa | 0 mm | - | 1781 W/m² | - |
| 1777972921 | 15.56° C | 67% | 1009.6 hPa | 0 mm | - | 1781 W/m² | - |
| 1777972021 | 15.56° C | 67% | 1009.8 hPa | 0 mm | - | 1781 W/m² | - |
| 1777971121 | 15.56° C | 67% | 1009.7 hPa | 0 mm | - | 1781 W/m² | - |
| 1777970220 | 15.56° C | 67% | 1009.7 hPa | 0 mm | - | 1782 W/m² | - |
| 1777969321 | 15.56° C | 68% | 1009.8 hPa | 0 mm | - | 1782 W/m² | - |
| 1777968421 | 15° C | 70% | 1009.7 hPa | 0 mm | - | 1782 W/m² | - |
| 1777967520 | 15° C | 69% | 1009.5 hPa | 0 mm | - | 1782 W/m² | - |
| 1777966621 | 15° C | 69% | 1009.6 hPa | 0 mm | - | - | - |
| 1777965721 | 15° C | 69% | 1009.7 hPa | 0 mm | - | - | - |
| 1777964820 | 15° C | 69% | 1009.7 hPa | 0 mm | - | - | - |
| 1777963921 | 14.44° C | 68% | 1009.7 hPa | 0 mm | - | - | - |
* Rain latest hour (hover to see other rain measurements)
** Current wind speed in m/s (hover to see current wind gust speed)